Year,Month,Day,Hour,Minute,Value (Times are PST for temperature in C)
2010,07,24,00,00,15.20
2010,07,24,00,01,15.20
2010,07,24,00,02,15.20
2010,07,24,00,03,15.20
2010,07,24,00,04,15.20
2010,07,24,00,05,15.10
2010,07,24,00,06,15.10
2010,07,24,00,07,15.10
2010,07,24,00,08,15.10
2010,07,24,00,09,15.10
2010,07,24,00,10,15.00
2010,07,24,00,11,15.00
2010,07,24,00,12,15.00
2010,07,24,00,13,15.00
2010,07,24,00,14,15.00
2010,07,24,00,15,15.00
2010,07,24,00,16,15.00
2010,07,24,00,17,15.00
2010,07,24,00,18,15.00
2010,07,24,00,19,15.00
2010,07,24,00,20,15.00
2010,07,24,00,21,15.00
2010,07,24,00,22,15.00
2010,07,24,00,23,15.00
2010,07,24,00,24,15.00
2010,07,24,00,25,15.00
2010,07,24,00,26,15.00
2010,07,24,00,27,15.00
2010,07,24,00,28,15.00
2010,07,24,00,29,14.90
2010,07,24,00,30,14.90
2010,07,24,00,31,14.90
2010,07,24,00,32,14.90
2010,07,24,00,33,14.90
2010,07,24,00,34,14.90
2010,07,24,00,35,14.80
2010,07,24,00,36,14.80
2010,07,24,00,37,14.80
2010,07,24,00,38,14.80
2010,07,24,00,39,14.80
2010,07,24,00,40,14.80
2010,07,24,00,41,14.80
2010,07,24,00,42,14.90
2010,07,24,00,43,15.00
2010,07,24,00,44,15.00
2010,07,24,00,45,15.00
2010,07,24,00,46,15.00
2010,07,24,00,47,15.00
2010,07,24,00,48,15.00
2010,07,24,00,49,15.00
2010,07,24,00,50,15.00
2010,07,24,00,51,15.00
2010,07,24,00,52,15.00
2010,07,24,00,53,15.00
2010,07,24,00,54,15.10
2010,07,24,00,55,15.10
2010,07,24,00,56,15.20
2010,07,24,00,57,15.20
2010,07,24,00,58,15.20
2010,07,24,00,59,15.20
2010,07,24,01,00,15.20
2010,07,24,01,01,15.20
2010,07,24,01,02,15.20
2010,07,24,01,03,15.20
2010,07,24,01,04,15.10
2010,07,24,01,05,15.10
2010,07,24,01,06,15.10
2010,07,24,01,07,15.10
2010,07,24,01,08,15.00
2010,07,24,01,09,15.00
2010,07,24,01,10,15.00
2010,07,24,01,11,15.00
2010,07,24,01,12,15.00
2010,07,24,01,13,15.00
2010,07,24,01,14,15.00
2010,07,24,01,15,15.00
2010,07,24,01,16,15.00
2010,07,24,01,17,15.00
2010,07,24,01,18,15.00
2010,07,24,01,19,15.00
2010,07,24,01,20,15.00
2010,07,24,01,21,15.00
2010,07,24,01,22,15.00
2010,07,24,01,23,15.00
2010,07,24,01,24,14.90
2010,07,24,01,25,14.90
2010,07,24,01,26,14.90
2010,07,24,01,27,14.90
2010,07,24,01,28,14.80
2010,07,24,01,29,14.80
2010,07,24,01,30,14.80
2010,07,24,01,31,14.80
2010,07,24,01,32,14.80
2010,07,24,01,33,14.80
2010,07,24,01,34,14.70
2010,07,24,01,35,14.70
2010,07,24,01,36,14.70
2010,07,24,01,37,14.70
2010,07,24,01,38,14.70
2010,07,24,01,39,14.70
2010,07,24,01,40,14.70
2010,07,24,01,41,14.60
2010,07,24,01,42,14.60
2010,07,24,01,43,14.60
2010,07,24,01,44,14.60
2010,07,24,01,45,14.60
2010,07,24,01,46,14.60
2010,07,24,01,47,14.50
2010,07,24,01,48,14.50
2010,07,24,01,49,14.50
2010,07,24,01,50,14.50
2010,07,24,01,51,14.40
2010,07,24,01,52,14.40
2010,07,24,01,53,14.40
2010,07,24,01,54,14.40
2010,07,24,01,55,14.40
2010,07,24,01,56,14.40
2010,07,24,01,57,14.40
2010,07,24,01,58,14.40
2010,07,24,01,59,14.30
2010,07,24,02,00,14.30
2010,07,24,02,01,14.30
2010,07,24,02,02,14.30
2010,07,24,02,03,14.30
2010,07,24,02,04,14.30
2010,07,24,02,05,14.30
2010,07,24,02,06,14.20
2010,07,24,02,07,14.20
2010,07,24,02,08,14.20
2010,07,24,02,09,14.20
2010,07,24,02,10,14.20
2010,07,24,02,11,14.20
2010,07,24,02,12,14.20
2010,07,24,02,13,14.20
2010,07,24,02,14,14.20
2010,07,24,02,15,14.20
2010,07,24,02,16,14.20
2010,07,24,02,17,14.20
2010,07,24,02,18,14.10
2010,07,24,02,19,14.10
2010,07,24,02,20,14.10
2010,07,24,02,21,14.10
2010,07,24,02,22,14.10
2010,07,24,02,23,14.10
2010,07,24,02,24,14.10
2010,07,24,02,25,14.10
2010,07,24,02,26,14.10
2010,07,24,02,27,14.10
2010,07,24,02,28,14.00
2010,07,24,02,29,14.00
2010,07,24,02,30,14.00
2010,07,24,02,31,14.00
2010,07,24,02,32,14.00
2010,07,24,02,33,14.00
2010,07,24,02,34,14.00
2010,07,24,02,35,13.90
2010,07,24,02,36,13.90
2010,07,24,02,37,13.90
2010,07,24,02,38,13.90
2010,07,24,02,39,13.80
2010,07,24,02,40,13.80
2010,07,24,02,41,13.80
2010,07,24,02,42,13.80
2010,07,24,02,43,13.80
2010,07,24,02,44,13.70
2010,07,24,02,45,13.70
2010,07,24,02,46,13.70
2010,07,24,02,47,13.70
2010,07,24,02,48,13.60
2010,07,24,02,49,13.60
2010,07,24,02,50,13.60
2010,07,24,02,51,13.60
2010,07,24,02,52,13.60
2010,07,24,02,53,13.60
2010,07,24,02,54,13.60
2010,07,24,02,55,13.50
2010,07,24,02,56,13.50
2010,07,24,02,57,13.50
2010,07,24,02,58,13.50
2010,07,24,02,59,13.50
2010,07,24,03,00,13.40
2010,07,24,03,01,13.40
2010,07,24,03,02,13.40
2010,07,24,03,03,13.30
2010,07,24,03,04,13.30
2010,07,24,03,05,13.30
2010,07,24,03,06,13.20
2010,07,24,03,07,13.20
2010,07,24,03,08,13.20
2010,07,24,03,09,13.20
2010,07,24,03,10,13.20
2010,07,24,03,11,13.20
2010,07,24,03,12,13.20
2010,07,24,03,13,13.20
2010,07,24,03,14,13.20
2010,07,24,03,15,13.20
2010,07,24,03,16,13.20
2010,07,24,03,17,13.20
2010,07,24,03,18,13.20
2010,07,24,03,19,13.20
2010,07,24,03,20,13.20
2010,07,24,03,21,13.20
2010,07,24,03,22,13.20
2010,07,24,03,23,13.10
2010,07,24,03,24,13.10
2010,07,24,03,25,13.10
2010,07,24,03,26,13.10
2010,07,24,03,27,13.10
2010,07,24,03,28,13.00
2010,07,24,03,29,13.00
2010,07,24,03,30,13.00
2010,07,24,03,31,13.00
2010,07,24,03,32,13.00
2010,07,24,03,33,13.00
2010,07,24,03,34,13.00
2010,07,24,03,35,13.00
2010,07,24,03,36,13.00
2010,07,24,03,37,13.00
2010,07,24,03,38,13.00
2010,07,24,03,39,13.00
2010,07,24,03,40,13.00
2010,07,24,03,41,13.00
2010,07,24,03,42,13.00
2010,07,24,03,43,13.00
2010,07,24,03,44,13.00
2010,07,24,03,45,12.90
2010,07,24,03,46,12.90
2010,07,24,03,47,12.90
2010,07,24,03,48,12.90
2010,07,24,03,49,12.90
2010,07,24,03,50,12.90
2010,07,24,03,51,12.90
2010,07,24,03,52,12.90
2010,07,24,03,53,12.80
2010,07,24,03,54,12.80
2010,07,24,03,55,12.80
2010,07,24,03,56,12.80
2010,07,24,03,57,12.80
2010,07,24,03,58,12.80
2010,07,24,03,59,12.80
2010,07,24,04,00,12.70
2010,07,24,04,01,12.70
2010,07,24,04,02,12.70
2010,07,24,04,03,12.70
2010,07,24,04,04,12.70
2010,07,24,04,05,12.70
2010,07,24,04,06,12.70
2010,07,24,04,07,12.70
2010,07,24,04,08,12.70
2010,07,24,04,09,12.70
2010,07,24,04,10,12.70
2010,07,24,04,11,12.60
2010,07,24,04,12,12.60
2010,07,24,04,13,12.60
2010,07,24,04,14,12.60
2010,07,24,04,15,12.60
2010,07,24,04,16,12.60
2010,07,24,04,17,12.60
2010,07,24,04,18,12.60
2010,07,24,04,19,12.50
2010,07,24,04,20,12.50
2010,07,24,04,21,12.50
2010,07,24,04,22,12.50
2010,07,24,04,23,12.40
2010,07,24,04,24,12.40
2010,07,24,04,25,12.40
2010,07,24,04,26,12.40
2010,07,24,04,27,12.30
2010,07,24,04,28,12.30
2010,07,24,04,29,12.30
2010,07,24,04,30,12.30
2010,07,24,04,31,12.30
2010,07,24,04,32,12.30
2010,07,24,04,33,12.30
2010,07,24,04,34,12.30
2010,07,24,04,35,12.30
2010,07,24,04,36,12.30
2010,07,24,04,37,12.30
2010,07,24,04,38,12.30
2010,07,24,04,39,12.30
2010,07,24,04,40,12.30
2010,07,24,04,41,12.30
2010,07,24,04,42,12.30
2010,07,24,04,43,12.30
2010,07,24,04,44,12.30
2010,07,24,04,45,12.30
2010,07,24,04,46,12.30
2010,07,24,04,47,12.30
2010,07,24,04,48,12.30
2010,07,24,04,49,12.30
2010,07,24,04,50,12.30
2010,07,24,04,51,12.30
2010,07,24,04,52,12.30
2010,07,24,04,53,12.30
2010,07,24,04,54,12.30
2010,07,24,04,55,12.30
2010,07,24,04,56,12.30
2010,07,24,04,57,12.30
2010,07,24,04,58,12.30
2010,07,24,04,59,12.30
2010,07,24,05,00,12.30
2010,07,24,05,01,12.20
2010,07,24,05,02,12.20
2010,07,24,05,03,12.20
2010,07,24,05,04,12.20
2010,07,24,05,05,12.20
2010,07,24,05,06,12.20
2010,07,24,05,07,12.10
2010,07,24,05,08,12.10
2010,07,24,05,09,12.10
2010,07,24,05,10,12.10
2010,07,24,05,11,12.10
2010,07,24,05,12,12.10
2010,07,24,05,13,12.10
2010,07,24,05,14,12.10
2010,07,24,05,15,12.20
2010,07,24,05,16,12.20
2010,07,24,05,17,12.10
2010,07,24,05,18,12.10
2010,07,24,05,19,12.10
2010,07,24,05,20,12.10
2010,07,24,05,21,12.10
2010,07,24,05,22,12.10
2010,07,24,05,23,12.20
2010,07,24,05,24,12.20
2010,07,24,05,25,12.20
2010,07,24,05,26,12.20
2010,07,24,05,27,12.20
2010,07,24,05,28,12.20
2010,07,24,05,29,12.20
2010,07,24,05,30,12.20
2010,07,24,05,31,12.20
2010,07,24,05,32,12.20
2010,07,24,05,33,12.20
2010,07,24,05,34,12.10
2010,07,24,05,35,12.10
2010,07,24,05,36,12.10
2010,07,24,05,37,12.10
2010,07,24,05,38,12.10
2010,07,24,05,39,12.10
2010,07,24,05,40,12.10
2010,07,24,05,41,12.10
2010,07,24,05,42,12.10
2010,07,24,05,43,12.10
2010,07,24,05,44,12.20
2010,07,24,05,45,12.20
2010,07,24,05,46,12.20
2010,07,24,05,47,12.20
2010,07,24,05,48,12.20
2010,07,24,05,49,12.20
2010,07,24,05,50,12.20
2010,07,24,05,51,12.20
2010,07,24,05,52,12.10
2010,07,24,05,53,12.10
2010,07,24,05,54,12.10
2010,07,24,05,55,12.10
2010,07,24,05,56,12.10
2010,07,24,05,57,12.10
2010,07,24,05,58,12.10
2010,07,24,05,59,12.10
2010,07,24,06,00,12.10
2010,07,24,06,01,12.10
2010,07,24,06,02,12.10
2010,07,24,06,03,12.10
2010,07,24,06,04,12.10
2010,07,24,06,05,12.10
2010,07,24,06,06,12.10
2010,07,24,06,07,12.10
2010,07,24,06,08,12.10
2010,07,24,06,09,12.10
2010,07,24,06,10,12.10
2010,07,24,06,11,12.10
2010,07,24,06,12,12.20
2010,07,24,06,13,12.20
2010,07,24,06,14,12.20
2010,07,24,06,15,12.20
2010,07,24,06,16,12.20
2010,07,24,06,17,12.20
2010,07,24,06,18,12.20
2010,07,24,06,19,12.20
2010,07,24,06,20,12.20
2010,07,24,06,21,12.20
2010,07,24,06,22,12.20
2010,07,24,06,23,12.20
2010,07,24,06,24,12.20
2010,07,24,06,25,12.20
2010,07,24,06,26,12.20
2010,07,24,06,27,12.20
2010,07,24,06,28,12.20
2010,07,24,06,29,12.20
2010,07,24,06,30,12.30
2010,07,24,06,31,12.30
2010,07,24,06,32,12.30
2010,07,24,06,33,12.30
2010,07,24,06,34,12.30
2010,07,24,06,35,12.30
2010,07,24,06,36,12.30
2010,07,24,06,37,12.30
2010,07,24,06,38,12.30
2010,07,24,06,39,12.30
2010,07,24,06,40,12.30
2010,07,24,06,41,12.30
2010,07,24,06,42,12.30
2010,07,24,06,43,12.30
2010,07,24,06,44,12.30
2010,07,24,06,45,12.30
2010,07,24,06,46,12.30
2010,07,24,06,47,12.30
2010,07,24,06,48,12.30
2010,07,24,06,49,12.30
2010,07,24,06,50,12.40
2010,07,24,06,51,12.40
2010,07,24,06,52,12.50
2010,07,24,06,53,12.50
2010,07,24,06,54,12.60
2010,07,24,06,55,12.60
2010,07,24,06,56,12.70
2010,07,24,06,57,12.80
2010,07,24,06,58,12.90
2010,07,24,06,59,13.00
2010,07,24,07,00,13.10
2010,07,24,07,01,13.20
2010,07,24,07,02,13.30
2010,07,24,07,03,13.40
2010,07,24,07,04,13.50
2010,07,24,07,05,13.60
2010,07,24,07,06,13.70
2010,07,24,07,07,13.80
2010,07,24,07,08,13.90
2010,07,24,07,09,14.00
2010,07,24,07,10,14.10
2010,07,24,07,11,14.20
2010,07,24,07,12,14.30
2010,07,24,07,13,14.40
2010,07,24,07,14,14.60
2010,07,24,07,15,14.70
2010,07,24,07,16,14.80
2010,07,24,07,17,15.00
2010,07,24,07,18,15.00
2010,07,24,07,19,15.20
2010,07,24,07,20,15.30
2010,07,24,07,21,15.50
2010,07,24,07,22,15.60
2010,07,24,07,23,15.70
2010,07,24,07,24,15.80
2010,07,24,07,25,16.00
2010,07,24,07,26,16.10
2010,07,24,07,27,16.20
2010,07,24,07,28,16.30
2010,07,24,07,29,16.40
2010,07,24,07,30,16.60
2010,07,24,07,31,16.70
2010,07,24,07,32,16.80
2010,07,24,07,33,17.00
2010,07,24,07,34,17.10
2010,07,24,07,35,17.20
2010,07,24,07,36,17.30
2010,07,24,07,37,17.40
2010,07,24,07,38,17.40
2010,07,24,07,39,17.50
2010,07,24,07,40,17.50
2010,07,24,07,41,17.60
2010,07,24,07,42,17.60
2010,07,24,07,43,17.70
2010,07,24,07,44,17.70
2010,07,24,07,45,17.70
2010,07,24,07,46,17.80
2010,07,24,07,47,17.80
2010,07,24,07,48,17.90
2010,07,24,07,49,18.00
2010,07,24,07,50,18.10
2010,07,24,07,51,18.20
2010,07,24,07,52,18.20
2010,07,24,07,53,18.30
2010,07,24,07,54,18.40
2010,07,24,07,55,18.50
2010,07,24,07,56,18.50
2010,07,24,07,57,18.60
2010,07,24,07,58,18.60
2010,07,24,07,59,18.70
2010,07,24,08,00,18.80
2010,07,24,08,01,18.80
2010,07,24,08,02,18.90
2010,07,24,08,03,19.00
2010,07,24,08,04,19.00
2010,07,24,08,05,19.10
2010,07,24,08,06,19.10
2010,07,24,08,07,19.20
2010,07,24,08,08,19.20
2010,07,24,08,09,19.30
2010,07,24,08,10,19.30
2010,07,24,08,11,19.30
2010,07,24,08,12,19.30
2010,07,24,08,13,19.40
2010,07,24,08,14,19.40
2010,07,24,08,15,19.40
2010,07,24,08,16,19.40
2010,07,24,08,17,19.40
2010,07,24,08,18,19.50
2010,07,24,08,19,19.50
2010,07,24,08,20,19.60
2010,07,24,08,21,19.60
2010,07,24,08,22,19.70
2010,07,24,08,23,19.70
2010,07,24,08,24,19.80
2010,07,24,08,25,19.80
2010,07,24,08,26,19.90
2010,07,24,08,27,20.00
2010,07,24,08,28,20.00
2010,07,24,08,29,20.10
2010,07,24,08,30,20.10
2010,07,24,08,31,20.20
2010,07,24,08,32,20.30
2010,07,24,08,33,20.30
2010,07,24,08,34,20.40
2010,07,24,08,35,20.50
2010,07,24,08,36,20.60
2010,07,24,08,37,20.70
2010,07,24,08,38,20.70
2010,07,24,08,39,20.70
2010,07,24,08,40,20.70
2010,07,24,08,41,20.70
2010,07,24,08,42,20.70
2010,07,24,08,43,20.80
2010,07,24,08,44,20.90
2010,07,24,08,45,21.00
2010,07,24,08,46,21.00
2010,07,24,08,47,21.10
2010,07,24,08,48,21.20
2010,07,24,08,49,21.20
2010,07,24,08,50,21.20
2010,07,24,08,51,21.30
2010,07,24,08,52,21.30
2010,07,24,08,53,21.30
2010,07,24,08,54,21.30
2010,07,24,08,55,21.40
2010,07,24,08,56,21.30
2010,07,24,08,57,21.30
2010,07,24,08,58,21.30
2010,07,24,08,59,21.30
2010,07,24,09,00,21.30
2010,07,24,09,01,21.20
2010,07,24,09,02,21.20
2010,07,24,09,03,21.30
2010,07,24,09,04,21.30
2010,07,24,09,05,21.30
2010,07,24,09,06,21.30
2010,07,24,09,07,21.30
2010,07,24,09,08,21.30
2010,07,24,09,09,21.30
2010,07,24,09,10,21.30
2010,07,24,09,11,21.40
2010,07,24,09,12,21.40
2010,07,24,09,13,21.50
2010,07,24,09,14,21.50
2010,07,24,09,15,21.50
2010,07,24,09,16,21.50
2010,07,24,09,17,21.40
2010,07,24,09,18,21.30
2010,07,24,09,19,21.30
2010,07,24,09,20,21.30
2010,07,24,09,21,21.30
2010,07,24,09,22,21.30
2010,07,24,09,23,21.30
2010,07,24,09,24,21.30
2010,07,24,09,25,21.30
2010,07,24,09,26,21.30
2010,07,24,09,27,21.30
2010,07,24,09,28,21.40
2010,07,24,09,29,21.40
2010,07,24,09,30,21.40
2010,07,24,09,31,21.50
2010,07,24,09,32,21.50
2010,07,24,09,33,21.60
2010,07,24,09,34,21.60
2010,07,24,09,35,21.60
2010,07,24,09,36,21.70
2010,07,24,09,37,21.70
2010,07,24,09,38,21.80
2010,07,24,09,39,21.80
2010,07,24,09,40,21.80
2010,07,24,09,41,21.80
2010,07,24,09,42,21.80
2010,07,24,09,43,21.70
2010,07,24,09,44,21.60
2010,07,24,09,45,21.50
2010,07,24,09,46,21.50
2010,07,24,09,47,21.40
2010,07,24,09,48,21.30
2010,07,24,09,49,21.30
2010,07,24,09,50,21.30
2010,07,24,09,51,21.30
2010,07,24,09,52,21.30
2010,07,24,09,53,21.30
2010,07,24,09,54,21.30
2010,07,24,09,55,21.30
2010,07,24,09,56,21.30
2010,07,24,09,57,21.40
2010,07,24,09,58,21.50
2010,07,24,09,59,21.60
2010,07,24,10,00,21.70
2010,07,24,10,01,21.80
2010,07,24,10,02,21.80
2010,07,24,10,03,21.80
2010,07,24,10,04,21.70
2010,07,24,10,05,21.70
2010,07,24,10,06,21.70
2010,07,24,10,07,21.70
2010,07,24,10,08,21.70
2010,07,24,10,09,21.70
2010,07,24,10,10,21.80
2010,07,24,10,11,21.80
2010,07,24,10,12,21.80
2010,07,24,10,13,21.80
2010,07,24,10,14,21.70
2010,07,24,10,15,21.70
2010,07,24,10,16,21.70
2010,07,24,10,17,21.60
2010,07,24,10,18,21.60
2010,07,24,10,19,21.50
2010,07,24,10,20,21.50
2010,07,24,10,21,21.50
2010,07,24,10,22,21.50
2010,07,24,10,23,21.50
2010,07,24,10,24,21.60
2010,07,24,10,25,21.60
2010,07,24,10,26,21.60
2010,07,24,10,27,21.70
2010,07,24,10,28,21.80
2010,07,24,10,29,21.80
2010,07,24,10,30,21.70
2010,07,24,10,31,21.60
2010,07,24,10,32,21.50
2010,07,24,10,33,21.50
2010,07,24,10,34,21.50
2010,07,24,10,35,21.50
2010,07,24,10,36,21.60
2010,07,24,10,37,21.70
2010,07,24,10,38,21.80
2010,07,24,10,39,21.80
2010,07,24,10,40,21.80
2010,07,24,10,41,21.80
2010,07,24,10,42,21.60
2010,07,24,10,43,21.50
2010,07,24,10,44,21.40
2010,07,24,10,45,21.40
2010,07,24,10,46,21.40
2010,07,24,10,47,21.40
2010,07,24,10,48,21.40
2010,07,24,10,49,21.40
2010,07,24,10,50,21.40
2010,07,24,10,51,21.40
2010,07,24,10,52,21.50
2010,07,24,10,53,21.50
2010,07,24,10,54,21.60
2010,07,24,10,55,21.70
2010,07,24,10,56,21.70
2010,07,24,10,57,21.80
2010,07,24,10,58,21.80
2010,07,24,10,59,21.80
2010,07,24,11,00,21.80
2010,07,24,11,01,21.80
2010,07,24,11,02,21.80
2010,07,24,11,03,21.90
2010,07,24,11,04,21.90
2010,07,24,11,05,21.90
2010,07,24,11,06,22.00
2010,07,24,11,07,22.10
2010,07,24,11,08,22.20
2010,07,24,11,09,22.20
2010,07,24,11,10,22.20
2010,07,24,11,11,22.20
2010,07,24,11,12,22.20
2010,07,24,11,13,22.20
2010,07,24,11,14,22.20
2010,07,24,11,15,22.30
2010,07,24,11,16,22.30
2010,07,24,11,17,22.40
2010,07,24,11,18,22.50
2010,07,24,11,19,22.60
2010,07,24,11,20,22.70
2010,07,24,11,21,22.80
2010,07,24,11,22,22.70
2010,07,24,11,23,22.70
2010,07,24,11,24,22.70
2010,07,24,11,25,22.60
2010,07,24,11,26,22.60
2010,07,24,11,27,22.60
2010,07,24,11,28,22.70
2010,07,24,11,29,22.70
2010,07,24,11,30,22.80
2010,07,24,11,31,22.80
2010,07,24,11,32,22.80
2010,07,24,11,33,22.80
2010,07,24,11,34,22.90
2010,07,24,11,35,22.90
2010,07,24,11,36,22.90
2010,07,24,11,37,22.90
2010,07,24,11,38,22.90
2010,07,24,11,39,22.80
2010,07,24,11,40,22.80
2010,07,24,11,41,22.80
2010,07,24,11,42,22.80
2010,07,24,11,43,22.80
2010,07,24,11,44,22.80
2010,07,24,11,45,22.80
2010,07,24,11,46,22.90
2010,07,24,11,47,22.90
2010,07,24,11,48,22.90
2010,07,24,11,49,22.90
2010,07,24,11,50,22.90
2010,07,24,11,51,22.90
2010,07,24,11,52,23.00
2010,07,24,11,53,23.00
2010,07,24,11,54,23.10
2010,07,24,11,55,23.10
2010,07,24,11,56,23.10
2010,07,24,11,57,23.10
2010,07,24,11,58,23.10
2010,07,24,11,59,23.10
2010,07,24,12,00,23.10
2010,07,24,12,01,23.20
2010,07,24,12,02,23.20
2010,07,24,12,03,23.30
2010,07,24,12,04,23.30
2010,07,24,12,05,23.30
2010,07,24,12,06,23.20
2010,07,24,12,07,23.10
2010,07,24,12,08,23.10
2010,07,24,12,09,23.10
2010,07,24,12,10,23.10
2010,07,24,12,11,23.10
2010,07,24,12,12,23.00
2010,07,24,12,13,23.00
2010,07,24,12,14,22.90
2010,07,24,12,15,22.90
2010,07,24,12,16,22.80
2010,07,24,12,17,22.70
2010,07,24,12,18,22.60
2010,07,24,12,19,22.60
2010,07,24,12,20,22.60
2010,07,24,12,21,22.60
2010,07,24,12,22,22.60
2010,07,24,12,23,22.60
2010,07,24,12,24,22.70
2010,07,24,12,25,22.70
2010,07,24,12,26,22.70
2010,07,24,12,27,22.70
2010,07,24,12,28,22.70
2010,07,24,12,29,22.70
2010,07,24,12,30,22.80
2010,07,24,12,31,22.80
2010,07,24,12,32,22.80
2010,07,24,12,33,22.90
2010,07,24,12,34,23.00
2010,07,24,12,35,23.10
2010,07,24,12,36,23.10
2010,07,24,12,37,23.10
2010,07,24,12,38,23.20
2010,07,24,12,39,23.20
2010,07,24,12,40,23.30
2010,07,24,12,41,23.30
2010,07,24,12,42,23.30
2010,07,24,12,43,23.30
2010,07,24,12,44,23.30
2010,07,24,12,45,23.40
2010,07,24,12,46,23.40
2010,07,24,12,47,23.40
2010,07,24,12,48,23.40
2010,07,24,12,49,23.40
2010,07,24,12,50,23.50
2010,07,24,12,51,23.60
2010,07,24,12,52,23.50
2010,07,24,12,53,23.50
2010,07,24,12,54,23.50
2010,07,24,12,55,23.60
2010,07,24,12,56,23.70
2010,07,24,12,57,23.70
2010,07,24,12,58,23.80
2010,07,24,12,59,23.80
2010,07,24,13,00,23.70
2010,07,24,13,01,23.60
2010,07,24,13,02,23.60
2010,07,24,13,03,23.60
2010,07,24,13,04,23.70
2010,07,24,13,05,23.70
2010,07,24,13,06,23.70
2010,07,24,13,07,23.70
2010,07,24,13,08,23.80
2010,07,24,13,09,23.80
2010,07,24,13,10,23.80
2010,07,24,13,11,23.80
2010,07,24,13,12,23.70
2010,07,24,13,13,23.70
2010,07,24,13,14,23.60
2010,07,24,13,15,23.60
2010,07,24,13,16,23.60
2010,07,24,13,17,23.60
2010,07,24,13,18,23.70
2010,07,24,13,19,23.90
2010,07,24,13,20,24.00
2010,07,24,13,21,24.10
2010,07,24,13,22,24.20
2010,07,24,13,23,24.30
2010,07,24,13,24,24.30
2010,07,24,13,25,24.40
2010,07,24,13,26,24.40
2010,07,24,13,27,24.40
2010,07,24,13,28,24.50
2010,07,24,13,29,24.60
2010,07,24,13,30,24.70
2010,07,24,13,31,24.70
2010,07,24,13,32,24.70
2010,07,24,13,33,24.60
2010,07,24,13,34,24.60
2010,07,24,13,35,24.50
2010,07,24,13,36,24.50
2010,07,24,13,37,24.60
2010,07,24,13,38,24.70
2010,07,24,13,39,24.70
2010,07,24,13,40,24.60
2010,07,24,13,41,24.60
2010,07,24,13,42,24.60
2010,07,24,13,43,24.60
2010,07,24,13,44,24.80
2010,07,24,13,45,24.90
2010,07,24,13,46,25.00
2010,07,24,13,47,25.00
2010,07,24,13,48,25.00
2010,07,24,13,49,25.00
2010,07,24,13,50,24.90
2010,07,24,13,51,24.90
2010,07,24,13,52,24.90
2010,07,24,13,53,24.90
2010,07,24,13,54,25.00
2010,07,24,13,55,25.10
2010,07,24,13,56,25.10
2010,07,24,13,57,25.10
2010,07,24,13,58,25.00
2010,07,24,13,59,24.90
2010,07,24,14,00,24.90
2010,07,24,14,01,24.90
2010,07,24,14,02,24.90
2010,07,24,14,03,24.90
2010,07,24,14,04,25.00
2010,07,24,14,05,24.90
2010,07,24,14,06,24.80
2010,07,24,14,07,24.80
2010,07,24,14,08,24.80
2010,07,24,14,09,24.80
2010,07,24,14,10,24.90
2010,07,24,14,11,25.00
2010,07,24,14,12,25.00
2010,07,24,14,13,25.00
2010,07,24,14,14,24.90
2010,07,24,14,15,25.00
2010,07,24,14,16,25.00
2010,07,24,14,17,25.10
2010,07,24,14,18,25.20
2010,07,24,14,19,25.30
2010,07,24,14,20,25.20
2010,07,24,14,21,25.30
2010,07,24,14,22,25.40
2010,07,24,14,23,25.50
2010,07,24,14,24,25.60
2010,07,24,14,25,25.60
2010,07,24,14,26,25.60
2010,07,24,14,27,25.60
2010,07,24,14,28,25.50
2010,07,24,14,29,25.40
2010,07,24,14,30,25.40
2010,07,24,14,31,25.40
2010,07,24,14,32,25.40
2010,07,24,14,33,25.50
2010,07,24,14,34,25.40
2010,07,24,14,35,25.40
2010,07,24,14,36,25.40
2010,07,24,14,37,25.50
2010,07,24,14,38,25.60
2010,07,24,14,39,25.60
2010,07,24,14,40,25.60
2010,07,24,14,41,25.60
2010,07,24,14,42,25.60
2010,07,24,14,43,25.60
2010,07,24,14,44,25.60
2010,07,24,14,45,25.60
2010,07,24,14,46,25.50
2010,07,24,14,47,25.50
2010,07,24,14,48,25.50
2010,07,24,14,49,25.60
2010,07,24,14,50,25.50
2010,07,24,14,51,25.60
2010,07,24,14,52,25.60
2010,07,24,14,53,25.50
2010,07,24,14,54,25.40
2010,07,24,14,55,25.40
2010,07,24,14,56,25.40
2010,07,24,14,57,25.50
2010,07,24,14,58,25.60
2010,07,24,14,59,25.60
2010,07,24,15,00,25.60
2010,07,24,15,01,25.60
2010,07,24,15,02,25.50
2010,07,24,15,03,25.50
2010,07,24,15,04,25.50
2010,07,24,15,05,25.50
2010,07,24,15,06,25.50
2010,07,24,15,07,25.60
2010,07,24,15,08,25.60
2010,07,24,15,09,25.60
2010,07,24,15,10,25.60
2010,07,24,15,11,25.60
2010,07,24,15,12,25.70
2010,07,24,15,13,25.70
2010,07,24,15,14,25.70
2010,07,24,15,15,25.90
2010,07,24,15,16,25.90
2010,07,24,15,17,26.00
2010,07,24,15,18,26.10
2010,07,24,15,19,26.20
2010,07,24,15,20,26.10
2010,07,24,15,21,26.00
2010,07,24,15,22,26.00
2010,07,24,15,23,26.00
2010,07,24,15,24,25.90
2010,07,24,15,25,25.90
2010,07,24,15,26,25.90
2010,07,24,15,27,25.90
2010,07,24,15,28,25.80
2010,07,24,15,29,25.90
2010,07,24,15,30,25.90
2010,07,24,15,31,25.90
2010,07,24,15,32,25.90
2010,07,24,15,33,25.90
2010,07,24,15,34,25.90
2010,07,24,15,35,25.90
2010,07,24,15,36,25.80
2010,07,24,15,37,25.80
2010,07,24,15,38,25.70
2010,07,24,15,39,25.70
2010,07,24,15,40,25.70
2010,07,24,15,41,25.70
2010,07,24,15,42,25.70
2010,07,24,15,43,25.60
2010,07,24,15,44,25.60
2010,07,24,15,45,25.60
2010,07,24,15,46,25.60
2010,07,24,15,47,25.70
2010,07,24,15,48,25.80
2010,07,24,15,49,25.90
2010,07,24,15,50,25.90
2010,07,24,15,51,25.90
2010,07,24,15,52,25.90
2010,07,24,15,53,25.90
2010,07,24,15,54,26.00
2010,07,24,15,55,26.00
2010,07,24,15,56,26.10
2010,07,24,15,57,26.00
2010,07,24,15,58,26.00
2010,07,24,15,59,26.00
2010,07,24,16,00,26.00
2010,07,24,16,01,26.00
2010,07,24,16,02,26.00
2010,07,24,16,03,26.10
2010,07,24,16,04,26.10
2010,07,24,16,05,26.10
2010,07,24,16,06,26.10
2010,07,24,16,07,26.00
2010,07,24,16,08,26.00
2010,07,24,16,09,26.10
2010,07,24,16,10,26.10
2010,07,24,16,11,26.10
2010,07,24,16,12,26.10
2010,07,24,16,13,26.00
2010,07,24,16,14,25.90
2010,07,24,16,15,25.90
2010,07,24,16,16,25.90
2010,07,24,16,17,25.90
2010,07,24,16,18,26.00
2010,07,24,16,19,26.10
2010,07,24,16,20,26.20
2010,07,24,16,21,26.30
2010,07,24,16,22,26.40
2010,07,24,16,23,26.40
2010,07,24,16,24,26.40
2010,07,24,16,25,26.40
2010,07,24,16,26,26.40
2010,07,24,16,27,26.40
2010,07,24,16,28,26.40
2010,07,24,16,29,26.40
2010,07,24,16,30,26.40
2010,07,24,16,31,26.50
2010,07,24,16,32,26.50
2010,07,24,16,33,26.60
2010,07,24,16,34,26.70
2010,07,24,16,35,26.80
2010,07,24,16,36,26.80
2010,07,24,16,37,26.80
2010,07,24,16,38,26.80
2010,07,24,16,39,26.80
2010,07,24,16,40,26.70
2010,07,24,16,41,26.60
2010,07,24,16,42,26.50
2010,07,24,16,43,26.40
2010,07,24,16,44,26.30
2010,07,24,16,45,26.30
2010,07,24,16,46,26.30
2010,07,24,16,47,26.20
2010,07,24,16,48,26.10
2010,07,24,16,49,26.10
2010,07,24,16,50,26.10
2010,07,24,16,51,26.20
2010,07,24,16,52,26.20
2010,07,24,16,53,26.10
2010,07,24,16,54,26.20
2010,07,24,16,55,26.30
2010,07,24,16,56,26.40
2010,07,24,16,57,26.50
2010,07,24,16,58,26.50
2010,07,24,16,59,26.60
2010,07,24,17,00,26.60
2010,07,24,17,01,26.70
2010,07,24,17,02,26.70
2010,07,24,17,03,26.80
2010,07,24,17,04,26.90
2010,07,24,17,05,27.00
2010,07,24,17,06,27.00
2010,07,24,17,07,27.00
2010,07,24,17,08,26.90
2010,07,24,17,09,26.90
2010,07,24,17,10,26.80
2010,07,24,17,11,26.70
2010,07,24,17,12,26.50
2010,07,24,17,13,26.40
2010,07,24,17,14,26.20
2010,07,24,17,15,26.10
2010,07,24,17,16,25.90
2010,07,24,17,17,25.90
2010,07,24,17,18,25.80
2010,07,24,17,19,25.70